Dewpoint
32 32 32 33 33 32 32 32 33 33 33 32 32 32 32 32 32 32 33 33 34 34 35 35 36 37 38 39 40 40 41 42 43 44 45 46 47 48 49 50 50 49 49 49 48 48 48 48 48 48 48 47 46 45 45 45 45 44 44 44 44 44 44 44 45 45 45 44 44
31 32 32 33 33 32 31 31 32 32 32 32 32 32 32 32 32 32 32 33 33 34 34 35 36 37 38 39 40 41 41 42 43 44 45 46 46 47 48 49 49 49 49 49 48 48 48 48 48 48 48 46 45 44 44 44 44 44 44 43 44 44 44 44 44 44 44 44 43
31 31 31 31 31 31 30 30 30 31 31 31 31 31 31 32 32 32 32 32 33 34 34 35 35 37 38 39 40 41 42 43 44 44 45 46 46 46 47 47 48 48 49 49 48 48 47 47 48 48 48 47 44 43 43 43 43 43 43 43 44 44 44 44 44 43 43 43 42
30 30 30 30 30 30 30 30 30 30 30 31 31 31 31 31 32 32 32 32 33 34 34 35 35 36 38 39 40 41 42 43 44 44 45 45 46 46 46 46 47 48 48 49 49 48 48 47 48 48 47 46 44 43 42 42 42 43 43 43 43 44 44 44 44 44 44 43 42
30 30 30 30 30 30 30 30 30 30 30 30 31 31 31 31 31 32 32 32 33 33 34 35 35 36 38 39 39 40 41 42 43 43 44 45 45 45 46 46 47 48 48 48 49 48 48 48 48 48 47 47 46 45 43 40 41 41 42 43 43 43 43 43 43 44 44 44 43
30 30 30 30 30 30 30 30 30 30 30 30 31 31 31 31 31 31 32 32 33 34 34 35 36 37 38 38 39 39 40 41 42 43 44 44 45 45 45 45 46 47 48 48 48 48 48 48 47 48 48 48 46 44 41 39 39 39 40 41 42 42 43 43 43 43 43 43 43
29 29 30 30 30 30 30 30 30 30 30 30 30 31 31 31 31 32 33 33 33 34 35 35 36 36 37 38 39 39 40 41 42 42 43 44 45 45 45 45 45 46 47 48 48 48 48 47 47 47 47 45 42 40 38 37 37 37 38 39 40 41 42 42 43 43 43 42 42
29 29 29 29 30 30 30 30 30 30 30 30 30 30 31 31 32 32 33 33 34 34 35 35 35 35 36 37 37 38 39 40 41 42 43 44 45 45 45 45 45 46 46 47 48 48 47 47 47 46 45 43 41 39 37 36 36 36 36 37 38 39 40 40 41 41 42 41 41
29 29 29 29 30 30 30 30 30 30 30 30 31 31 31 31 32 32 33 34 34 35 34 34 35 35 35 36 36 37 38 39 40 42 43 44 45 45 45 44 44 45 46 47 48 47 47 46 46 46 46 45 42 39 37 35 35 36 36 37 37 37 38 38 39 39 39 39 39
29 29 29 29 30 30 30 30 30 30 31 30 31 31 32 33 33 33 34 35 35 35 34 34 35 35 35 35 35 36 37 38 39 40 41 43 44 45 45 44 44 44 46 47 47 47 47 46 46 46 45 45 43 40 37 36 36 36 37 38 38 38 38 39 39 39 39 39 39
29 29 29 29 30 30 30 30 30 30 30 30 30 31 32 33 33 34 35 35 35 35 35 35 35 35 35 35 35 36 37 38 39 40 41 42 44 45 45 44 44 44 44 46 46 46 46 46 45 44 44 45 44 43 40 37 37 37 37 38 39 39 39 40 39 39 39 39 39
29 29 29 29 30 30 30 30 30 30 30 30 30 31 32 33 34 34 35 35 35 35 35 35 35 35 35 35 35 36 37 38 39 40 41 42 44 45 45 45 44 43 43 44 44 45 44 44 44 44 44 44 44 43 41 39 38 38 38 39 39 40 40 40 40 40 40 40 40
29 29 29 29 30 30 30 30 29 29 30 30 30 31 32 33 34 35 35 35 36 35 35 35 35 35 35 36 36 37 38 38 39 40 41 42 44 44 45 45 44 44 43 42 43 43 43 42 43 43 43 43 43 42 41 39 39 39 39 39 39 40 40 40 40 40 40 40 40
29 29 29 29 30 30 29 29 29 30 30 30 31 32 32 33 35 35 36 36 36 35 35 36 36 37 37 37 37 38 38 39 40 41 41 42 43 44 45 45 45 44 44 43 42 42 42 41 41 41 41 42 42 41 41 40 39 39 40 40 39 39 40 40 40 40 40 40 40
28 29 29 29 30 30 30 30 30 30 30 30 31 32 33 33 35 35 36 36 35 36 37 37 37 38 38 38 38 39 39 40 41 41 42 42 43 44 44 45 45 45 44 44 44 42 41 40 40 40 40 41 41 41 41 40 40 40 40 39 39 39 39 39 40 40 40 40 39
28 28 29 30 30 30 30 30 30 30 30 30 31 32 33 34 35 35 35 35 36 36 37 37 37 37 38 38 38 39 39 40 41 41 42 42 43 43 44 44 44 45 45 44 44 44 43 42 41 41 40 41 41 41 41 40 39 39 39 39 39 39 39 39 39 39 39 39 39
28 29 30 30 30 30 30 30 30 30 30 30 31 32 33 34 35 35 35 35 36 36 36 36 36 36 36 37 38 39 39 40 41 42 42 41 41 41 41 42 44 44 45 45 44 44 44 43 43 42 41 41 41 41 40 40 39 39 39 39 39 39 39 39 39 39 39 39 39
28 29 30 31 31 31 31 31 31 31 31 31 32 32 33 33 35 35 35 35 35 35 35 35 34 34 35 36 37 38 39 39 40 41 41 40 39 39 39 39 41 42 44 44 44 44 43 43 42 42 41 41 40 40 39 39 39 38 38 38 38 38 38 38 38 39 39 39 39
28 29 30 31 31 31 31 32 32 32 32 32 32 32 33 33 35 35 35 35 35 35 35 35 34 33 34 35 36 37 38 38 39 39 39 39 38 38 37 37 38 39 39 40 41 41 41 41 40 40 39 39 39 39 39 38 38 38 37 37 37 37 37 38 38 38 38 39 39
29 30 30 31 31 31 31 32 32 32 32 32 32 32 33 33 35 35 35 35 35 35 35 35 34 33 33 34 35 36 37 37 37 37 38 38 37 37 36 36 36 36 36 37 37 38 38 39 39 39 38 38 38 38 38 37 37 37 37 37 37 37 37 37 37 38 38 38 38
30 30 30 31 31 31 31 31 31 31 32 32 32 32 32 33 34 35 35 35 35 35 35 34 34 33 33 33 34 35 35 36 37 37 37 38 37 37 37 36 36 35 35 35 35 35 36 36 37 37 37 37 37 37 37 37 37 36 36 36 36 36 36 37 37 37 37 37 37
30 30 30 30 30 30 31 31 31 31 31 31 31 31 31 32 34 35 35 35 35 34 34 34 34 33 33 33 33 34 35 35 36 36 37 38 38 38 37 37 36 36 35 35 35 35 35 35 35 35 35 35 35 36 36 36 35 35 35 35 35 35 35 36 36 36 36 37 37
30 30 30 30 30 30 30 30 30 30 30 31 31 31 31 31 33 34 35 34 34 34 34 34 34 33 33 32 32 33 33 34 34 35 36 37 37 38 38 37 37 36 36 36 35 35 34 33 33 34 34 34 34 34 34 34 34 35 35 35 35 35 35 35 35 35 35 36 37
30 30 30 30 29 29 29 29 29 29 30 30 30 30 30 31 32 34 34 34 34 33 33 34 34 33 33 32 32 32 32 32 32 33 34 35 36 37 38 38 38 37 37 37 37 36 35 34 33 32 33 33 33 33 33 33 33 33 33 34 34 34 34 34 34 34 35 35 36
29 29 28 28 27 27 28 28 28 28 29 30 30 30 30 30 31 33 34 33 33 33 33 33 33 33 33 32 32 31 31 31 31 31 32 33 34 35 36 38 38 38 38 38 39 38 38 37 35 33 32 32 33 33 33 33 33 33 33 33 33 33 33 33 33 33 33 33 34
28 27 26 26 26 26 26 26 26 27 28 28 29 29 30 30 31 32 33 33 33 33 33 33 33 33 32 31 31 30 30 30 30 30 31 31 32 33 34 36 37 38 38 38 39 39 38 38 37 35 34 32 33 33 32 32 32 32 32 32 32 32 32 32 32 32 32 32 33
26 26 25 25 25 25 25 25 26 26 27 27 27 28 29 30 30 31 32 33 33 33 33 33 32 32 32 31 30 30 30 29 30 30 30 30 30 31 32 34 35 37 39 39 39 39 38 38 37 36 35 33 32 32 32 32 31 30 30 30 30 30 30 30 30 31 31 31 32
24 24 24 24 24 24 24 24 25 25 26 26 26 27 29 29 30 30 30 32 33 33 32 32 32 32 31 31 30 30 29 29 28 29 29 30 30 30 31 32 34 36 39 39 39 39 38 37 37 36 35 34 32 31 31 30 30 29 29 28 29 29 29 29 29 29 30 30 31
23 23 23 23 23 23 23 23 24 24 25 25 26 26 28 29 29 29 30 31 32 32 32 32 31 31 31 30 30 30 29 28 28 28 28 28 28 29 30 30 32 35 38 39 39 39 38 37 36 36 35 35 32 31 31 30 29 28 27 27 27 27 28 28 28 29 29 30 31
22 22 22 22 22 22 22 22 23 22 23 24 25 26 27 28 28 28 29 30 31 32 32 32 31 30 30 30 30 30 29 28 28 27 27 26 27 27 28 30 30 33 36 39 39 39 38 37 36 36 35 35 32 31 30 29 28 27 26 26 26 27 27 28 28 29 30 31 32
22 21 21 21 21 21 21 21 21 21 21 22 23 25 26 26 27 27 28 29 30 31 33 32 31 30 30 30 30 30 29 28 27 27 26 26 26 26 27 27 28 31 34 36 38 38 38 36 36 35 35 34 32 30 29 27 26 26 26 26 26 26 27 28 28 29 30 30 31
21 21 21 21 21 21 21 20 21 21 21 21 21 22 23 24 26 26 27 28 29 30 31 32 31 30 30 30 30 30 29 28 27 27 27 26 26 25 25 25 25 29 32 35 36 37 38 36 35 35 34 33 31 29 27 26 25 24 24 25 25 26 26 27 28 28 29 30 30
20 20 20 20 20 20 20 20 21 21 21 21 20 20 21 22 24 26 26 27 28 29 30 32 31 30 30 30 30 29 29 28 28 27 27 26 26 25 24 23 23 26 31 34 35 37 37 35 35 34 33 32 29 27 26 24 23 23 23 24 24 25 26 26 27 28 28 29 29
19 19 19 19 19 19 19 20 21 20 19 18 18 19 20 21 23 24 26 27 27 27 29 31 31 31 30 30 29 29 29 28 28 27 26 26 25 24 23 21 21 25 30 34 36 37 36 35 33 33 32 31 28 26 25 24 23 23 23 23 24 24 25 26 26 27 28 29 29
19 18 18 18 18 18 18 18 19 18 17 17 17 18 19 21 22 24 25 26 26 26 26 28 30 30 30 30 30 29 29 28 27 27 26 26 25 23 22 21 21 25 30 34 37 37 35 33 32 31 30 29 26 26 25 25 24 23 23 23 24 25 25 26 26 27 28 29 29
18 18 18 17 17 17 17 17 17 16 16 17 17 17 18 20 22 23 25 26 25 25 24 24 26 28 30 30 30 29 28 27 27 27 26 26 25 23 21 20 20 24 29 34 37 36 34 31 31 30 28 26 25 24 24 24 24 23 23 24 25 26 26 27 27 28 28 29 29
17 17 17 17 17 17 16 15 15 15 15 15 16 17 18 20 21 22 24 25 24 23 22 22 23 25 27 29 29 29 28 27 26 26 26 26 25 23 21 20 20 22 27 34 37 35 32 31 30 29 26 24 22 23 23 23 23 23 23 23 25 26 26 26 26 26 27 29 30
17 17 17 17 17 16 15 14 14 14 14 14 16 17 18 19 20 21 23 24 23 22 21 21 21 22 24 27 28 28 26 25 24 25 26 26 25 23 22 20 20 22 26 32 35 35 32 32 30 29 26 23 22 21 21 21 21 21 21 22 23 24 25 25 24 23 24 27 30
16 16 16 16 16 16 15 13 13 13 13 14 14 15 16 17 18 20 21 23 22 22 21 20 21 21 23 25 25 25 24 21 21 22 24 25 25 24 23 21 21 22 25 30 34 35 32 31 30 29 26 23 21 21 21 21 20 20 21 21 21 22 22 22 21 21 21 23 29
15 15 15 16 16 15 14 13 12 13 13 14 14 14 15 17 17 18 20 21 21 21 21 20 20 21 22 23 23 22 21 20 19 21 23 25 25 25 24 21 21 22 25 28 33 34 33 30 29 28 26 22 21 20 20 20 20 19 19 20 20 20 20 20 20 20 20 21 25
14 14 15 15 16 15 14 13 12 13 13 13 14 15 16 16 17 17 18 19 20 20 19 19 20 20 21 21 21 21 21 21 20 20 21 24 23 23 22 21 21 22 24 27 30 33 34 30 29 27 26 23 21 20 20 20 19 19 19 19 19 19 19 19 19 19 20 21 21